Location: Newark
(55.4831°N, 25.9422°E)
Time: 19:59:27
(UTC+00:00)

ISS - Visible Passes

Search period start: 18 September 2020 00:00
Search period end: 28 September 2020 00:00
Orbit: 419 x 420 km, 51.6° (Epoch: 19 September)

Date Brightness Start Highest point End Pass type
(mag) Time Alt. Az. Time Alt. Az. Time Alt. Az.
18 Sep -1.6 18:07:16 10° S 18:08:14 14° S 18:08:14 14° S visible
19 Sep -1.7 17:20:51 10° S 17:22:21 12° SE 17:23:09 12° SE visible
19 Sep -1.4 18:55:24 10° SW 18:56:09 15° SW 18:56:09 15° SW visible
20 Sep -2.5 18:08:17 10° SW 18:10:54 26° SSE 18:10:54 26° SSE visible
21 Sep -2.2 17:21:18 10° SSW 17:23:56 21° SSE 17:25:31 16° ESE visible
21 Sep -1.8 18:57:03 10° WSW 18:58:29 22° SW 18:58:29 22° SW visible
22 Sep -3.1 18:09:47 10° WSW 18:12:56 37° SSE 18:13:00 37° SSE visible
23 Sep -2.8 17:22:33 10° SW 17:25:37 32° SSE 17:27:26 19° ESE visible
23 Sep -1.8 18:58:50 10° WSW 19:00:24 23° WSW 19:00:24 23° WSW visible
24 Sep -3.3 18:11:29 10° WSW 18:14:42 43° S 18:14:46 43° S visible
25 Sep -3.1 17:24:08 10° WSW 17:27:20 41° S 17:29:07 22° ESE visible
25 Sep -1.6 19:00:40 10° W 19:02:04 21° WSW 19:02:04 21° WSW visible
26 Sep -2.9 16:36:49 10° WSW 16:39:58 37° SSE 16:43:08 10° E visible
26 Sep -3.0 18:13:15 10° W 18:16:22 40° SSW 18:16:22 40° SSW visible
27 Sep -3.1 17:25:50 10° WSW 17:29:04 43° S 17:30:40 24° SE visible
27 Sep -1.2 19:02:35 10° W 19:03:37 16° WSW 19:03:37 16° WSW visible
